Location: Kitt Peak
(31.9639°N, 111.5992°W)
Time: 20:47:35
(UTC-07:00)

Hubble Space Telescope - Visible Passes

Search period start: 18 August 2019 00:00
Search period end: 28 August 2019 00:00
Orbit: 536 x 540 km, 28.5° (Epoch: 17 August)

Date Brightness Start Highest point End Pass type
(mag) Time Alt. Az. Time Alt. Az. Time Alt. Az.
18 Aug 1.1 19:45:22 10° WSW 19:49:22 52° S 19:52:47 14° ESE visible
18 Aug 2.9 21:26:35 10° W 21:28:07 20° WSW 21:28:07 20° WSW visible
19 Aug 1.2 19:34:49 10° W 19:38:49 51° S 19:42:43 11° ESE visible
19 Aug 2.7 21:16:07 10° WSW 21:18:02 22° WSW 21:18:02 22° WSW visible
20 Aug 2.6 21:05:43 10° WSW 21:07:58 22° SW 21:07:58 22° SW visible
21 Aug 2.6 20:55:22 10° WSW 20:57:55 20° SSW 20:57:55 20° SSW visible
22 Aug 2.7 20:45:08 10° WSW 20:47:53 17° SSW 20:47:53 17° SSW visible
23 Aug 3.0 20:35:05 10° SW 20:37:14 14° SSW 20:37:54 13° SSW visible
24 Aug 3.2 20:25:32 10° SW 20:26:36 11° SSW 20:27:40 10° S visible
